Location: Akdamlar
(36.8729°N, 30.5187°E)
Time: 20:25:05
(UTC+00:00)

Cosmos 2034 Rocket - Pass Details

Date: 18 September 2020
Orbit: 957 x 1002 km, 82.9° (Epoch: 23 October)

Event Time Altitude Azimuth Distance (km) Brightness Sun altitude
Rises 17:06:06 0° 165° (SSE) 3,708 6.8 -13.8°
Reaches altitude 10° 17:08:44 10° 159° (SSE) 2,764 6.0 -14.3°
Maximum altitude 17:14:41 43° 90° (E) 1,364 4.3 -15.5°
Drops below altitude 10° 17:20:38 10° 21° (NNE) 2,771 6.3 -16.7°
Sets 17:23:16 0° 15° (NNE) 3,719 7.1 -17.2°
